#timestamp,LO_Frequency,Hit,StdDev 
1540429215.4,286046999.4,N
1540429235.2,286046999.2,N
1540429255.1,286046997.2,Y
1540429256.0,286046997.2,P
1540429275.8,286046998.7,N
1540429295.6,286046998.7,N
1540429315.5,286046998.3,N
1540429335.3,286047001.0,N
1540429355.2,286046999.7,N
1540429375.9,286047000.3,N
1540429395.7,286046998.1,N
1540429415.6,286047000.6,N
1540429435.4,286046998.8,N
1540429455.3,286046999.3,N
1540429475.1,286046998.6,N
1540429476.0,286046998.6,N
1540429495.8,286046998.1,N
1540429515.7,286047000.7,N
1540429535.5,286047000.5,N
1540429555.3,286047001.0,N
1540429575.2,286047002.8,N
1540429595.0,286047000.0,N
1540429595.9,286047000.0,N
1540429615.8,286047000.8,N
1540429635.6,286046998.6,N
1540429655.4,286047000.7,N
1540429675.3,286046996.5,N
1540429695.1,286046997.3,N
1540429715.9,286046998.8,N
1540429735.7,286046998.7,N
1540429755.5,286046998.6,N
1540429775.4,286046998.6,N
1540429795.2,286046999.1,N
1540429815.1,286046998.4,N
1540429816.0,286046998.4,N
1540429835.8,286047000.9,N
1540429855.6,286047001.2,N
1540429875.5,286046998.3,N
1540429895.3,286046999.9,N
1540429915.1,286047001.0,N
1540429935.9,286046999.7,N
1540429955.7,286046998.7,N
1540429975.6,286046998.3,N
1540429995.4,286046998.2,N
1540430015.2,286047000.1,N
1540430035.1,286047000.1,N
1540430036.0,286047000.1,N
1540430055.8,286047001.5,N
1540430075.6,286047000.4,N
1540430095.5,286047002.2,N
1540430115.2,286046999.8,N
1540430135.0,286047004.0,Y
1540430135.9,286047004.0,P
1540430155.8,286047003.9,N
1540430175.6,286047003.0,N
1540430195.4,286047003.5,N
1540430215.3,286047006.0,Y
1540430235.1,286047002.1,P
1540430255.9,286047002.5,P
1540430275.7,286047001.8,P
1540430295.5,286047002.6,Y
1540430315.4,286046998.6,P
1540430335.2,286046998.8,N
1540430355.0,286046999.5,N
1540430355.9,286046999.5,N
1540430375.8,286046998.7,N
1540430425.7,286046998.3,E
1540430435.6,286047001.2,N
1540430455.4,286047000.1,P
1540430475.2,286047000.6,N
1540430495.1,286046998.1,Y
1540430496.0,286046998.1,P
1540430515.8,286046998.7,N
1540430535.7,286047001.2,N
1540430555.5,286047000.9,N
1540430575.3,286047001.0,N
1540430595.2,286047001.1,N
1540430615.0,286047000.4,N
1540430615.9,286047000.4,N
1540430635.8,286047000.1,N
1540430655.6,286046999.9,N
1540430675.4,286046999.9,N
1540430695.3,286046999.7,N
1540430715.1,286046999.9,N
1540430735.8,286046998.2,N
1540430755.7,286046999.4,N
1540430775.5,286046996.6,Y
1540430795.4,286046997.3,P
1540430815.2,286046996.9,N
1540430835.0,286046998.8,N
1540430835.9,286046998.8,N
1540430855.8,286046996.5,Y
1540430875.6,286046999.4,P
1540430895.5,286046998.7,N
1540430915.3,286046998.1,P
1540430935.1,286046999.5,N
1540430955.9,286046996.7,Y
1540430975.7,286046999.4,P
1540430995.6,286046998.9,P
1540431015.4,286046998.4,P
1540431035.2,286046998.5,Y
1540431055.1,286046998.6,P
1540431056.0,286046998.6,P
1540431075.8,286046998.5,P
1540431095.6,286046999.2,Y
1540431115.5,286047000.1,P
1540431135.3,286047000.5,N
1540431155.2,286047001.0,N
1540431175.9,286047000.7,N
1540431195.7,286047001.1,N
1540431215.6,286046998.5,N
1540431235.4,286047000.6,N
1540431255.2,286046999.8,N
1540431275.1,286047000.0,N
1540431276.0,286047000.0,N
1540431295.8,286047000.2,N
1540431315.7,286047000.4,N
1540431335.5,286047002.3,N
1540431355.3,286047002.1,N
1540431375.2,286047002.1,N
1540431395.0,286047002.2,N
1540431395.9,286047002.2,N
1540431415.7,286047000.9,N
1540431435.5,286046999.9,N
1540431455.3,286047000.5,N
1540431475.2,286047000.4,N
1540431495.0,286047001.0,N
1540431495.9,286047001.0,N
1540431515.8,286047001.1,N
1540431535.6,286046998.9,N
1540431555.4,286046998.8,N
1540431575.3,286046998.8,N
1540431595.1,286047001.0,N
1540431615.8,286047000.9,N
1540431635.7,286046999.9,N
1540431655.5,286047000.2,N
1540431675.4,286047000.6,N
1540431695.2,286047000.5,N
1540431715.0,286047000.3,N
1540431715.9,286047000.3,N
1540431735.8,286047000.5,N
1540431755.6,286047001.1,N
1540431775.5,286047000.3,N
1540431795.5,286047000.6,N
1540431815.3,286047000.8,N
1540431835.1,286046999.0,N
1540431855.9,286046999.0,N
1540431875.7,286046999.2,N
1540431895.6,286046996.9,Y
1540431915.4,286046999.6,P
1540431935.2,286046997.2,P
1540431955.1,286046997.2,N
1540431956.0,286046997.2,N
1540431975.8,286046997.0,N
1540431995.6,286046997.5,N
1540432015.5,286046997.5,N
1540432035.3,286046994.9,Y
1540432055.2,286046998.4,P
1540432075.9,286047001.1,P
1540432095.7,286047001.1,N
1540432115.6,286047000.6,N
1540432135.4,286046999.9,N
1540432155.2,286047001.0,N
1540432175.1,286047001.1,N
1540432176.0,286047001.1,N
1540432195.8,286047000.9,N
1540432215.7,286046998.1,N
1540432235.5,286047000.7,N
1540432255.3,286047000.9,N
1540432275.2,286046999.9,N
1540432295.0,286047001.0,N
1540432295.9,286047001.0,N
1540432315.7,286046998.1,N
1540432335.6,286047000.7,N
1540432355.4,286047002.4,N
1540432375.3,286047000.6,N
1540432395.1,286047000.6,N
1540432396.0,286047000.6,N
1540432415.8,286047000.4,N
1540432435.7,286047000.9,N
1540432455.5,286047000.6,N
1540432475.3,286047000.7,N
1540432495.2,286047001.1,N
1540432515.0,286047002.4,N
1540432515.9,286047002.4,N
1540432535.8,286047001.1,N
1540432555.6,286046999.0,N
1540432575.4,286046998.2,N
1540432595.3,286047000.7,N
1540432615.1,286046998.4,N
1540432635.9,286046998.9,N
1540432655.7,286046996.9,N
1540432675.5,286046997.0,N
1540432695.4,286046996.6,N
1540432715.2,286046998.7,N
1540432735.1,286047000.8,N
1540432736.0,286047000.8,N
1540432755.8,286046998.2,N
1540432775.6,286047001.1,N
1540432795.5,286046998.1,N
